����,���ϕ���(m/s),���ϕ���,�ő�u�ԕ���(m/s),�ő啗��������,�C��(��),���x(%),10���Ԉړ��ώZ�J��(mm),1���Ԉړ��ώZ�J��(mm),���J��(mm),�݌v�J��(mm)
2023-08-07T00:00:00+09:00,0.8,���쓌,1.6,���쓌,27.8,82.2,0,0,0,0
2023-08-07T00:01:00+09:00,0.8,���쓌,1.6,���쓌,27.8,81.7,0,0,0,0
2023-08-07T00:02:00+09:00,0.8,���쓌,1.8,��,27.4,81.4,0,0,0,0
2023-08-07T00:03:00+09:00,0.9,���쓌,1.8,��,27.3,82.3,0,0,0,0
2023-08-07T00:04:00+09:00,0.9,���쓌,1.8,��,27.1,83,0,0,0,0
2023-08-07T00:05:00+09:00,0.9,��,1.8,��,27.1,83.2,0,0,0,0
2023-08-07T00:06:00+09:00,1,��,1.8,��,27,83.6,0,0,0,0
2023-08-07T00:07:00+09:00,1,��,1.8,��,26.9,83.9,0,0,0,0
2023-08-07T00:08:00+09:00,1,��,1.8,��,27,84.7,0,0,0,0
2023-08-07T00:09:00+09:00,0.9,��,1.8,��,27.1,84.7,0,0,0,0
2023-08-07T00:10:00+09:00,0.9,��,1.8,��,27.5,85.1,0,0,0,0
2023-08-07T00:11:00+09:00,0.8,��,1.8,��,27.5,83.8,0,0,0,0
2023-08-07T00:12:00+09:00,0.8,��,1.6,��,27.3,82.9,0,0,0,0
2023-08-07T00:13:00+09:00,0.7,��,1.5,��,27.3,83.5,0,0,0,0
2023-08-07T00:14:00+09:00,0.7,��,1.4,��,27.2,83.3,0,0,0,0
2023-08-07T00:15:00+09:00,0.6,��,1.4,��,27.4,84.2,0,0,0,0
2023-08-07T00:16:00+09:00,0.5,��,1.4,��,27.6,83.9,0,0,0,0
2023-08-07T00:17:00+09:00,0.5,��,1,��,27.4,83.3,0,0,0,0
2023-08-07T00:18:00+09:00,0.5,���쓌,1.1,�쓌,27.2,83,0,0,0,0
2023-08-07T00:19:00+09:00,0.5,���쓌,1.1,�쓌,26.9,83.2,0,0,0,0
2023-08-07T00:20:00+09:00,0.5,���쓌,1.1,�쓌,27.1,84.6,0,0,0,0
2023-08-07T00:21:00+09:00,0.6,���쓌,1.1,�쓌,27.3,84.9,0,0,0,0
2023-08-07T00:22:00+09:00,0.6,���쓌,1.1,�쓌,27.3,84.7,0,0,0,0
2023-08-07T00:23:00+09:00,0.6,���쓌,1.1,�쓌,27.4,84.3,0,0,0,0
2023-08-07T00:24:00+09:00,0.6,���쓌,1.2,�쓌,27.4,84,0,0,0,0
2023-08-07T00:25:00+09:00,0.7,���쓌,1.4,��쓌,27,83.1,0,0,0,0
2023-08-07T00:26:00+09:00,0.7,�쓌,1.4,��쓌,26.8,83.5,0,0,0,0
2023-08-07T00:27:00+09:00,0.8,�쓌,1.4,��쓌,26.7,84.1,0,0,0,0
2023-08-07T00:28:00+09:00,0.7,�쓌,1.4,��쓌,26.7,85.2,0,0,0,0
2023-08-07T00:29:00+09:00,0.7,�쓌,1.4,��쓌,26.6,85.7,0,0,0,0
2023-08-07T00:30:00+09:00,0.7,�쓌,1.4,��쓌,26.7,86.1,0,0,0,0
2023-08-07T00:31:00+09:00,0.7,�쓌,1.4,��쓌,26.7,86.4,0,0,0,0
2023-08-07T00:32:00+09:00,0.7,�쓌,1.4,��쓌,26.7,86.5,0,0,0,0
2023-08-07T00:33:00+09:00,0.7,�쓌,1.4,��쓌,26.7,86.3,0,0,0,0
2023-08-07T00:34:00+09:00,0.7,�쓌,1.4,��쓌,26.6,85.9,0,0,0,0
2023-08-07T00:35:00+09:00,0.6,�쓌,1.4,�쓌,26.6,86.2,0,0,0,0
2023-08-07T00:36:00+09:00,0.6,�쓌,1.1,��쓌,26.5,86.5,0,0,0,0
2023-08-07T00:37:00+09:00,0.6,�쓌,1.1,���쓌,26.9,87.4,0,0,0,0
2023-08-07T00:38:00+09:00,0.6,�쓌,1.1,���쓌,27,86.4,0,0,0,0
2023-08-07T00:39:00+09:00,0.6,�쓌,1.3,���쓌,26.8,85.9,0,0,0,0
2023-08-07T00:40:00+09:00,0.7,���쓌,1.3,���쓌,26.9,86.1,0,0,0,0
2023-08-07T00:41:00+09:00,0.7,���쓌,1.3,���쓌,27,86.4,0,0,0,0
2023-08-07T00:42:00+09:00,0.7,���쓌,1.3,���쓌,27.2,86.1,0,0,0,0
2023-08-07T00:43:00+09:00,0.7,���쓌,1.3,���쓌,27.1,85.3,0,0,0,0
2023-08-07T00:44:00+09:00,0.7,���쓌,1.3,���쓌,26.8,85,0,0,0,0
2023-08-07T00:45:00+09:00,0.7,���쓌,1.3,���쓌,26.8,85.6,0,0,0,0
2023-08-07T00:46:00+09:00,0.7,���쓌,1.3,���쓌,26.7,85.8,0,0,0,0
2023-08-07T00:47:00+09:00,0.7,���쓌,1.3,���쓌,26.8,86.3,0,0,0,0
2023-08-07T00:48:00+09:00,0.7,���쓌,1.3,���쓌,26.7,86,0,0,0,0
2023-08-07T00:49:00+09:00,0.8,���쓌,1.3,�쓌,26.6,86.2,0,0,0,0
2023-08-07T00:50:00+09:00,0.8,���쓌,1.3,�쓌,26.4,86.2,0,0,0,0
2023-08-07T00:51:00+09:00,0.8,���쓌,1.3,�쓌,26.4,86.8,0,0,0,0
2023-08-07T00:52:00+09:00,0.8,���쓌,1.4,��,26.6,87.7,0,0,0,0
2023-08-07T00:53:00+09:00,0.8,���쓌,1.4,��,26.8,87.5,0,0,0,0
2023-08-07T00:54:00+09:00,0.8,���쓌,1.4,��,26.9,86.9,0,0,0,0
2023-08-07T00:55:00+09:00,0.8,���쓌,1.4,��,26.9,86.3,0,0,0,0
2023-08-07T00:56:00+09:00,0.8,���쓌,1.4,��,26.9,86,0,0,0,0
2023-08-07T00:57:00+09:00,0.8,���쓌,1.4,��,26.7,85.5,0,0,0,0
2023-08-07T00:58:00+09:00,0.8,���쓌,1.4,��,26.8,86.6,0,0,0,0
2023-08-07T00:59:00+09:00,0.8,��,1.4,��,26.9,86.7,0,0,0,0
2023-08-07T01:00:00+09:00,0.7,��,1.4,��,27,86.5,0,0,0,0
2023-08-07T01:01:00+09:00,0.7,��,1.4,��,26.8,85.7,0,0,0,0
2023-08-07T01:02:00+09:00,0.7,��,1.4,���쓌,26.5,85,0,0,0,0
2023-08-07T01:03:00+09:00,0.7,���쓌,1.4,���쓌,26.3,85.9,0,0,0,0
2023-08-07T01:04:00+09:00,0.8,���쓌,1.4,���쓌,26.2,86.6,0,0,0,0
2023-08-07T01:05:00+09:00,0.8,���쓌,1.4,���쓌,26.4,87.8,0,0,0,0
2023-08-07T01:06:00+09:00,0.8,���쓌,1.4,���쓌,26.6,88.1,0,0,0,0
2023-08-07T01:07:00+09:00,0.7,���쓌,1.4,���쓌,26.5,87.2,0,0,0,0
2023-08-07T01:08:00+09:00,0.7,���쓌,1.4,���쓌,26.3,86.4,0,0,0,0
2023-08-07T01:09:00+09:00,0.7,���쓌,1.4,���쓌,26.4,86.8,0,0,0,0
2023-08-07T01:10:00+09:00,0.8,���쓌,1.9,���쓌,26.5,86.8,0,0,0,0
2023-08-07T01:11:00+09:00,0.8,���쓌,1.9,���쓌,26.4,86.3,0,0,0,0
2023-08-07T01:12:00+09:00,0.8,���쓌,1.9,���쓌,26.3,86.6,0,0,0,0
2023-08-07T01:13:00+09:00,0.8,���쓌,1.9,���쓌,26.3,87.3,0,0,0,0
2023-08-07T01:14:00+09:00,0.8,���쓌,1.9,���쓌,26.3,87.7,0,0,0,0
2023-08-07T01:15:00+09:00,0.8,���쓌,1.9,���쓌,26.4,88.2,0,0,0,0
2023-08-07T01:16:00+09:00,0.9,��,1.9,���쓌,26.4,88.5,0,0,0,0
2023-08-07T01:17:00+09:00,0.9,��,1.9,���쓌,26.4,88.2,0,0,0,0
2023-08-07T01:18:00+09:00,1,��,1.9,���쓌,26.3,88.1,0,0,0,0
2023-08-07T01:19:00+09:00,1.1,��,1.9,���쓌,26.4,88.5,0,0,0,0
2023-08-07T01:20:00+09:00,1,��,1.7,���쓌,26.4,88.7,0,0,0,0
2023-08-07T01:21:00+09:00,1,��,1.7,���쓌,26.4,88.4,0,0,0,0
2023-08-07T01:22:00+09:00,0.9,���k��,1.7,���쓌,26.3,87.8,0,0,0,0
2023-08-07T01:23:00+09:00,0.9,���k��,1.7,���쓌,26.2,88.1,0,0,0,0
2023-08-07T01:24:00+09:00,0.8,���k��,1.6,���k��,26.2,88.5,0,0,0,0
2023-08-07T01:25:00+09:00,0.7,��,1.6,���k��,26.1,88.8,0,0,0,0
2023-08-07T01:26:00+09:00,0.7,��,1.6,���k��,26,89.1,0,0,0,0
2023-08-07T01:27:00+09:00,0.6,���쓌,1.6,���k��,26,89.3,0,0,0,0
2023-08-07T01:28:00+09:00,0.5,���쓌,1.5,���k��,25.9,89.6,0,0,0,0
2023-08-07T01:29:00+09:00,0.4,���쓌,1,��,26,89.9,0,0,0,0
2023-08-07T01:30:00+09:00,0.3,�쓌,0.7,�쓌,25.9,89.8,0,0,0,0
2023-08-07T01:31:00+09:00,0.3,�쓌,0.7,�쓌,25.8,89.9,0,0,0,0
2023-08-07T01:32:00+09:00,0.4,�쓌,0.7,�쓌,25.8,90.2,0,0,0,0
2023-08-07T01:33:00+09:00,0.4,��쓌,0.7,�쓌,25.8,90.5,0,0,0,0
2023-08-07T01:34:00+09:00,0.4,��쓌,0.8,��쐼,25.7,90.8,0,0,0,0
2023-08-07T01:35:00+09:00,0.4,��쓌,0.8,��쐼,25.7,91,0,0,0,0
2023-08-07T01:36:00+09:00,0.4,��쓌,0.8,��쐼,25.7,91.2,0,0,0,0
2023-08-07T01:37:00+09:00,0.5,��쓌,0.8,��쐼,25.8,91.4,0,0,0,0
2023-08-07T01:38:00+09:00,0.5,��,0.8,��쐼,25.8,91.4,0,0,0,0
2023-08-07T01:39:00+09:00,0.5,��,0.8,��쐼,25.9,91.4,0,0,0,0
2023-08-07T01:40:00+09:00,0.5,��,0.8,��쐼,26,91.1,0,0,0,0
2023-08-07T01:41:00+09:00,0.5,��,0.8,��쐼,26.1,91,0,0,0,0
2023-08-07T01:42:00+09:00,0.5,��쓌,0.8,��쐼,26.1,90.6,0,0,0,0
2023-08-07T01:43:00+09:00,0.5,��쓌,1,�쓌,26,90.2,0,0,0,0
2023-08-07T01:44:00+09:00,0.5,��쓌,1,�쓌,26,89.9,0,0,0,0
2023-08-07T01:45:00+09:00,0.6,��쓌,1.3,�쓌,25.9,89.8,0,0,0,0
2023-08-07T01:46:00+09:00,0.6,�쓌,1.6,�쓌,25.9,90,0,0,0,0
2023-08-07T01:47:00+09:00,0.7,�쓌,1.6,�쓌,25.8,90.3,0,0,0,0
2023-08-07T01:48:00+09:00,0.7,�쓌,1.6,�쓌,25.8,90.4,0,0,0,0
2023-08-07T01:49:00+09:00,0.8,�쓌,1.6,�쓌,25.8,90.6,0,0,0,0
2023-08-07T01:50:00+09:00,0.9,�쓌,1.6,�쓌,25.8,90.7,0,0,0,0
2023-08-07T01:51:00+09:00,0.9,�쓌,1.6,�쓌,25.8,90.6,0,0,0,0
2023-08-07T01:52:00+09:00,0.9,�쓌,1.6,�쓌,25.9,90.7,0,0,0,0
2023-08-07T01:53:00+09:00,0.9,�쓌,1.6,�쓌,25.9,90.8,0,0,0,0
2023-08-07T01:54:00+09:00,0.9,�쓌,1.6,�쓌,26.3,91.2,0,0,0,0
2023-08-07T01:55:00+09:00,0.8,�쓌,1.6,�쓌,26.2,89.9,0,0,0,0
2023-08-07T01:56:00+09:00,0.8,�쓌,1.4,���쓌,26.2,89.7,0,0,0,0
2023-08-07T01:57:00+09:00,0.8,�쓌,1.4,���쓌,26.1,89.2,0,0,0,0
2023-08-07T01:58:00+09:00,0.7,�쓌,1.4,���쓌,25.9,88.9,0,0,0,0
2023-08-07T01:59:00+09:00,0.7,�쓌,1.4,���쓌,25.9,89.4,0,0,0,0
2023-08-07T02:00:00+09:00,0.6,�쓌,1.4,���쓌,25.9,89.8,0,0,0,0
2023-08-07T02:01:00+09:00,0.6,�쓌,1.4,���쓌,25.8,90,0,0,0,0
2023-08-07T02:02:00+09:00,0.6,�쓌,1.4,���쓌,25.8,90.3,0,0,0,0
2023-08-07T02:03:00+09:00,0.7,�쓌,1.4,���쓌,25.8,90.5,0,0,0,0
2023-08-07T02:04:00+09:00,0.7,�쓌,1.4,��쓌,25.8,90.7,0,0,0,0
2023-08-07T02:05:00+09:00,0.7,�쓌,1.4,��쓌,25.7,90.8,0,0,0,0
2023-08-07T02:06:00+09:00,0.7,�쓌,1.4,��쓌,25.8,91.1,0,0,0,0
2023-08-07T02:07:00+09:00,0.6,�쓌,1.1,�쓌,25.7,91,0,0,0,0
2023-08-07T02:08:00+09:00,0.6,�쓌,1.1,�쓌,25.8,91.1,0,0,0,0
2023-08-07T02:09:00+09:00,0.6,�쓌,1.1,�쓌,25.8,91.3,0,0,0,0
2023-08-07T02:10:00+09:00,0.7,�쓌,1.1,�쓌,25.8,91.1,0,0,0,0
2023-08-07T02:11:00+09:00,0.6,�쓌,1.1,�쓌,25.8,91.2,0,0,0,0
2023-08-07T02:12:00+09:00,0.6,�쓌,1.1,�쓌,25.8,91,0,0,0,0
2023-08-07T02:13:00+09:00,0.6,�쓌,1.1,�쓌,25.8,91.1,0,0,0,0
2023-08-07T02:14:00+09:00,0.6,�쓌,1,��쓌,25.8,91,0,0,0,0
2023-08-07T02:15:00+09:00,0.6,�쓌,1,��쓌,25.8,91,0,0,0,0
2023-08-07T02:16:00+09:00,0.6,�쓌,1,��쓌,25.7,91.1,0,0,0,0
2023-08-07T02:17:00+09:00,0.6,�쓌,1,��쓌,25.7,91,0,0,0,0
2023-08-07T02:18:00+09:00,0.6,��쓌,1,��쓌,25.6,90.9,0,0,0,0
2023-08-07T02:19:00+09:00,0.5,��쓌,1,��쓌,25.6,90.8,0,0,0,0
2023-08-07T02:20:00+09:00,0.5,��쓌,0.9,�쓌,25.6,91.2,0,0,0,0
2023-08-07T02:21:00+09:00,0.5,��쓌,0.9,�쓌,25.7,91.4,0,0,0,0
2023-08-07T02:22:00+09:00,0.5,��쓌,0.9,�쓌,25.8,91.2,0,0,0,0
2023-08-07T02:23:00+09:00,0.5,��쓌,0.9,�쓌,25.7,90.8,0,0,0,0
2023-08-07T02:24:00+09:00,0.5,��쓌,0.9,�쓌,25.7,90.6,0,0,0,0
2023-08-07T02:25:00+09:00,0.5,��쓌,1,��쓌,25.6,90.6,0,0,0,0
2023-08-07T02:26:00+09:00,0.5,��쓌,1,��쓌,25.6,90.7,0,0,0,0
2023-08-07T02:27:00+09:00,0.5,��쓌,1,��쓌,25.6,90.8,0,0,0,0
2023-08-07T02:28:00+09:00,0.5,��쓌,1,��쓌,25.6,90.9,0,0,0,0
2023-08-07T02:29:00+09:00,0.5,��쓌,1,��쓌,25.6,91.1,0,0,0,0
2023-08-07T02:30:00+09:00,0.6,��쓌,1.4,���쓌,25.7,91.1,0,0,0,0
2023-08-07T02:31:00+09:00,0.7,��쓌,1.4,���쓌,25.7,90.9,0,0,0,0
2023-08-07T02:32:00+09:00,0.7,��쓌,1.4,���쓌,25.6,90.8,0,0,0,0
2023-08-07T02:33:00+09:00,0.7,��쓌,1.4,���쓌,25.6,90.8,0,0,0,0
2023-08-07T02:34:00+09:00,0.7,��쓌,1.4,���쓌,25.6,90.8,0,0,0,0
2023-08-07T02:35:00+09:00,0.6,��쓌,1.4,���쓌,25.6,90.8,0,0,0,0
2023-08-07T02:36:00+09:00,0.6,��쓌,1.4,���쓌,25.6,90.9,0,0,0,0
2023-08-07T02:37:00+09:00,0.6,��쓌,1.4,���쓌,25.5,90.9,0,0,0,0
2023-08-07T02:38:00+09:00,0.5,��쓌,1.4,���쓌,25.5,90.9,0,0,0,0
2023-08-07T02:39:00+09:00,0.5,��쓌,1.4,���쓌,25.5,90.9,0,0,0,0
2023-08-07T02:40:00+09:00,0.4,��,1.4,��쓌,25.5,90.9,0,0,0,0
2023-08-07T02:41:00+09:00,0.3,��,1.4,��쓌,25.6,91.1,0,0,0,0
2023-08-07T02:42:00+09:00,0.2,�É�,1.4,��쓌,25.6,91.3,0,0,0,0
2023-08-07T02:43:00+09:00,0.2,�É�,0.7,���쐼,25.5,91,0,0,0,0
2023-08-07T02:44:00+09:00,0.2,�É�,0.7,���쐼,25.5,91,0,0,0,0
2023-08-07T02:45:00+09:00,0.2,�É�,0.7,���쐼,25.4,91.3,0,0,0,0
2023-08-07T02:46:00+09:00,0.2,�É�,0.7,���쐼,25.4,91.7,0,0,0,0
2023-08-07T02:47:00+09:00,0.2,�É�,0.7,���쐼,25.5,91.9,0,0,0,0
2023-08-07T02:48:00+09:00,0.2,�É�,0.9,�쐼,25.5,92,0,0,0,0
2023-08-07T02:49:00+09:00,0.3,�쐼,0.9,�쐼,25.4,91.8,0,0,0,0
2023-08-07T02:50:00+09:00,0.4,�쐼,1.2,��쐼,25.3,91.9,0,0,0,0
2023-08-07T02:51:00+09:00,0.4,�쐼,1.2,��쐼,25.4,92.2,0,0,0,0
2023-08-07T02:52:00+09:00,0.5,�쐼,1.2,��쐼,25.4,92.3,0,0,0,0
2023-08-07T02:53:00+09:00,0.4,�쐼,1.2,��쐼,25.4,92.4,0,0,0,0
2023-08-07T02:54:00+09:00,0.4,�쐼,1.2,��쐼,25.5,92.7,0,0,0,0
2023-08-07T02:55:00+09:00,0.3,��쐼,1.2,��쐼,25.5,92.5,0,0,0,0
2023-08-07T02:56:00+09:00,0.3,��쐼,1.2,��쐼,25.5,92.3,0,0,0,0
2023-08-07T02:57:00+09:00,0.4,�쐼,1.2,��쐼,25.5,92,0,0,0,0
2023-08-07T02:58:00+09:00,0.3,�쐼,1.2,��쐼,25.5,92,0,0,0,0
2023-08-07T02:59:00+09:00,0.2,�É�,1.2,��쐼,25.5,92,0,0,0,0
2023-08-07T03:00:00+09:00,0.2,�É�,0.7,�쐼,25.6,92,0,0,0,0
2023-08-07T03:01:00+09:00,0.1,�É�,0.6,�쐼,25.6,91.8,0,0,0,0
2023-08-07T03:02:00+09:00,0.1,�É�,0.6,��쐼,25.5,91.4,0,0,0,0
2023-08-07T03:03:00+09:00,0.2,�É�,0.7,�쐼,25.4,91.4,0,0,0,0
2023-08-07T03:04:00+09:00,0.3,��쐼,0.9,�쐼,25.4,91.4,0,0,0,0
2023-08-07T03:05:00+09:00,0.3,��쐼,0.9,�쐼,25.3,91.5,0,0,0,0
2023-08-07T03:06:00+09:00,0.4,��쐼,0.9,�쐼,25.3,91.7,0,0,0,0
2023-08-07T03:07:00+09:00,0.5,��쐼,0.9,�쐼,25.3,91.8,0,0,0,0
2023-08-07T03:08:00+09:00,0.5,�쐼,0.9,�쐼,25.3,91.9,0,0,0,0
2023-08-07T03:09:00+09:00,0.6,�쐼,0.9,�쐼,25.3,92,0,0,0,0
2023-08-07T03:10:00+09:00,0.6,�쐼,0.9,�쐼,25.3,92.2,0,0,0,0
2023-08-07T03:11:00+09:00,0.6,�쐼,0.9,�쐼,25.3,92.3,0,0,0,0
2023-08-07T03:12:00+09:00,0.6,�쐼,0.9,�쐼,25.3,92.3,0,0,0,0
2023-08-07T03:13:00+09:00,0.6,���쐼,0.9,�쐼,25.3,92.2,0,0,0,0
2023-08-07T03:14:00+09:00,0.6,���쐼,0.9,�쐼,25.3,92.3,0,0,0,0
2023-08-07T03:15:00+09:00,0.5,���쐼,0.9,�쐼,25.3,92.3,0,0,0,0
2023-08-07T03:16:00+09:00,0.5,���쐼,0.9,�쐼,25.3,92.3,0,0,0,0
2023-08-07T03:17:00+09:00,0.5,���쐼,0.8,���쐼,25.3,92.3,0,0,0,0
2023-08-07T03:18:00+09:00,0.4,�쐼,0.8,���쐼,25.3,92.2,0,0,0,0
2023-08-07T03:19:00+09:00,0.4,�쐼,0.7,�쐼,25.3,92.1,0,0,0,0
2023-08-07T03:20:00+09:00,0.4,�쐼,0.6,�쐼,25.3,92.1,0,0,0,0
2023-08-07T03:21:00+09:00,0.3,�쐼,0.6,�쐼,25.3,92.1,0,0,0,0
2023-08-07T03:22:00+09:00,0.3,�쐼,0.6,�쐼,25.3,92.2,0,0,0,0
2023-08-07T03:23:00+09:00,0.2,�É�,0.6,�쐼,25.3,92.3,0,0,0,0
2023-08-07T03:24:00+09:00,0.2,�É�,0.6,�쐼,25.3,92.4,0,0,0,0
2023-08-07T03:25:00+09:00,0.2,�É�,0.6,�쐼,25.4,92.4,0,0,0,0
2023-08-07T03:26:00+09:00,0.2,�É�,0.7,�k�k��,25.5,92.4,0,0,0,0
2023-08-07T03:27:00+09:00,0.2,�É�,0.7,�k�k��,25.5,92.2,0,0,0,0
2023-08-07T03:28:00+09:00,0.2,�É�,0.7,�k�k��,25.4,91.7,0,0,0,0
2023-08-07T03:29:00+09:00,0.2,�É�,0.7,�k�k��,25.4,91.5,0,0,0,0
2023-08-07T03:30:00+09:00,0.2,�É�,0.7,�k�k��,25.6,91.9,0,0,0,0
2023-08-07T03:31:00+09:00,0.2,�É�,0.7,�k�k��,25.5,91.2,0,0,0,0
2023-08-07T03:32:00+09:00,0.2,�É�,0.7,�k�k��,25.4,90.9,0,0,0,0
2023-08-07T03:33:00+09:00,0.2,�É�,0.7,�k�k��,25.4,91,0,0,0,0
2023-08-07T03:34:00+09:00,0.2,�É�,0.7,�k�k��,25.4,91.4,0,0,0,0
2023-08-07T03:35:00+09:00,0.2,�É�,0.7,�k�k��,25.4,91.8,0,0,0,0
2023-08-07T03:36:00+09:00,0.2,�É�,0.6,���쓌,25.3,92,0,0,0,0
2023-08-07T03:37:00+09:00,0.2,�É�,0.6,���쓌,25.3,92.3,0,0,0,0
2023-08-07T03:38:00+09:00,0.2,�É�,0.6,���쓌,25.3,92.7,0,0,0,0
2023-08-07T03:39:00+09:00,0.2,�É�,0.7,���k��,25.3,92.9,0,0,0,0
2023-08-07T03:40:00+09:00,0.2,�É�,1,���쓌,25.3,93,0,0,0,0
2023-08-07T03:41:00+09:00,0.2,�É�,1,���쓌,25.3,93.2,0,0,0,0
2023-08-07T03:42:00+09:00,0.3,�쓌,1,���쓌,25.3,93.3,0,0,0,0
2023-08-07T03:43:00+09:00,0.3,�쓌,1,���쓌,25.3,93.1,0,0,0,0
2023-08-07T03:44:00+09:00,0.3,�쓌,1,���쓌,25.1,92.9,0,0,0,0
2023-08-07T03:45:00+09:00,0.3,��쓌,1,���쓌,25,93,0,0,0,0
2023-08-07T03:46:00+09:00,0.3,��쓌,1,���쓌,25,93.3,0,0,0,0
2023-08-07T03:47:00+09:00,0.3,��쓌,1,���쓌,24.9,93.7,0,0,0,0
2023-08-07T03:48:00+09:00,0.4,��쓌,1,���쓌,24.9,93.9,0,0,0,0
2023-08-07T03:49:00+09:00,0.5,��,1,���쓌,24.9,94,0,0,0,0
2023-08-07T03:50:00+09:00,0.5,��,1,�쐼,24.9,94,0,0,0,0
2023-08-07T03:51:00+09:00,0.5,��쐼,1,�쐼,24.9,94.1,0,0,0,0
2023-08-07T03:52:00+09:00,0.6,��쐼,1,�쐼,25,94.2,0,0,0,0
2023-08-07T03:53:00+09:00,0.6,�쐼,1,�쐼,25,94.2,0,0,0,0
2023-08-07T03:54:00+09:00,0.6,�쐼,1,�쐼,25,94.1,0,0,0,0
2023-08-07T03:55:00+09:00,0.6,�쐼,1,�쐼,25,94,0,0,0,0
2023-08-07T03:56:00+09:00,0.6,�쐼,1,�쐼,25,94,0,0,0,0
2023-08-07T03:57:00+09:00,0.6,���쐼,1,�쐼,25.1,94,0,0,0,0
2023-08-07T03:58:00+09:00,0.6,���쐼,1,�쐼,25.1,93.9,0,0,0,0
2023-08-07T03:59:00+09:00,0.6,���쐼,1.1,���k��,25,93.4,0,0,0,0
2023-08-07T04:00:00+09:00,0.6,��,1.1,���k��,24.9,93.1,0,0,0,0
2023-08-07T04:01:00+09:00,0.6,��,1.1,���k��,24.9,93.4,0,0,0,0
2023-08-07T04:02:00+09:00,0.6,��,1.2,��,24.8,93.7,0,0,0,0
2023-08-07T04:03:00+09:00,0.7,��,1.2,��,24.9,94,0,0,0,0
2023-08-07T04:04:00+09:00,0.7,��,1.2,��,24.8,94.1,0,0,0,0
2023-08-07T04:05:00+09:00,0.8,��,1.2,��,24.8,94,0,0,0,0
2023-08-07T04:06:00+09:00,0.8,��,1.2,��,24.8,94.2,0,0,0,0
2023-08-07T04:07:00+09:00,0.8,��,1.2,��,24.8,94.5,0,0,0,0
2023-08-07T04:08:00+09:00,0.9,��,1.2,��,24.8,94.6,0,0,0,0
2023-08-07T04:09:00+09:00,0.9,��,1.2,��,24.8,94.5,0,0,0,0
2023-08-07T04:10:00+09:00,0.9,��,1.2,��,24.8,94.6,0,0,0,0
2023-08-07T04:11:00+09:00,0.9,��,1.2,��,24.8,94.6,0,0,0,0
2023-08-07T04:12:00+09:00,0.8,��,1.2,��,24.8,94.7,0,0,0,0
2023-08-07T04:13:00+09:00,0.8,��,1.2,��,24.8,94.8,0,0,0,0
2023-08-07T04:14:00+09:00,0.8,��,1.2,��,24.8,94.7,0,0,0,0
2023-08-07T04:15:00+09:00,0.8,��,1.2,���쐼,24.7,94.6,0,0,0,0
2023-08-07T04:16:00+09:00,0.8,��,1.2,���쐼,24.7,94.7,0,0,0,0
2023-08-07T04:17:00+09:00,0.7,��,1.2,���쐼,24.8,95,0,0,0,0
2023-08-07T04:18:00+09:00,0.7,��,1.2,���쐼,24.7,94.8,0,0,0,0
2023-08-07T04:19:00+09:00,0.6,��,1.2,���쐼,24.7,94.8,0,0,0,0
2023-08-07T04:20:00+09:00,0.6,��,1.2,���쐼,24.7,94.8,0,0,0,0
2023-08-07T04:21:00+09:00,0.6,���쐼,1.2,���쐼,24.7,94.9,0,0,0,0
2023-08-07T04:22:00+09:00,0.5,���쐼,1.2,���쐼,24.8,94.9,0,0,0,0
2023-08-07T04:23:00+09:00,0.5,���쐼,1.2,���쐼,24.8,95,0,0,0,0
2023-08-07T04:24:00+09:00,0.4,���쐼,1.1,��,24.8,95.1,0,0,0,0
2023-08-07T04:25:00+09:00,0.4,���쐼,0.8,��,24.8,94.9,0,0,0,0
2023-08-07T04:26:00+09:00,0.3,���쐼,0.8,��,24.8,94.8,0,0,0,0
2023-08-07T04:27:00+09:00,0.3,���쐼,0.8,��,25,94.9,0,0,0,0
2023-08-07T04:28:00+09:00,0.2,�É�,0.6,�쐼,25,94.9,0,0,0,0
2023-08-07T04:29:00+09:00,0.2,�É�,0.6,�쐼,25,94.5,0,0,0,0
2023-08-07T04:30:00+09:00,0.2,�É�,0.6,�쐼,25,94.2,0,0,0,0
2023-08-07T04:31:00+09:00,0.1,�É�,0.6,�쐼,25,94.1,0,0,0,0
2023-08-07T04:32:00+09:00,0.1,�É�,0.5,���쐼,25,94.1,0,0,0,0
2023-08-07T04:33:00+09:00,0,�É�,0.4,�쐼,25.1,94.1,0,0,0,0
2023-08-07T04:34:00+09:00,0,�É�,0.5,���k��,25,93.9,0,0,0,0
2023-08-07T04:35:00+09:00,0.1,�É�,0.5,���k��,25.1,93.8,0,0,0,0
2023-08-07T04:36:00+09:00,0.1,�É�,0.5,���k��,25,93.7,0,0,0,0
2023-08-07T04:37:00+09:00,0.1,�É�,0.5,���k��,25.1,93.7,0,0,0,0
2023-08-07T04:38:00+09:00,0.1,�É�,0.5,���k��,25.2,93.9,0,0,0,0
2023-08-07T04:39:00+09:00,0.1,�É�,0.5,���k��,25.1,93.3,0,0,0,0
2023-08-07T04:40:00+09:00,0.1,�É�,0.5,���k��,25,93,0,0,0,0
2023-08-07T04:41:00+09:00,0.1,�É�,0.5,���k��,25,93.1,0,0,0,0
2023-08-07T04:42:00+09:00,0.1,�É�,0.5,���k��,25.2,93.6,0,0,0,0
2023-08-07T04:43:00+09:00,0.2,�É�,0.5,���k��,25,93.3,0,0,0,0
2023-08-07T04:44:00+09:00,0.1,�É�,0.5,���쓌,24.9,93,0,0,0,0
2023-08-07T04:45:00+09:00,0.1,�É�,0.5,���쓌,24.9,93.2,0,0,0,0
2023-08-07T04:46:00+09:00,0.1,�É�,0.5,���쓌,24.9,93.6,0,0,0,0
2023-08-07T04:47:00+09:00,0.1,�É�,0.5,���쓌,25,94.1,0,0,0,0
2023-08-07T04:48:00+09:00,0.2,�É�,0.9,���k��,24.8,93.6,0,0,0,0
2023-08-07T04:49:00+09:00,0.2,�É�,0.9,���k��,24.7,93.4,0,0,0,0
2023-08-07T04:50:00+09:00,0.2,�É�,0.9,���k��,24.7,93.6,0,0,0,0
2023-08-07T04:51:00+09:00,0.3,���쐼,1,��,24.7,94,0,0,0,0
2023-08-07T04:52:00+09:00,0.4,��,1,��,24.7,94.3,0,0,0,0
2023-08-07T04:53:00+09:00,0.4,��,1,��,24.7,94.5,0,0,0,0
2023-08-07T04:54:00+09:00,0.5,��,1,��,24.7,94.7,0,0,0,0
2023-08-07T04:55:00+09:00,0.6,���k��,1.1,��,24.7,94.9,0,0,0,0
2023-08-07T04:56:00+09:00,0.7,���k��,1.1,��,24.8,95.1,0,0,0,0
2023-08-07T04:57:00+09:00,0.8,��,1.3,��,24.7,95,0,0,0,0
2023-08-07T04:58:00+09:00,0.8,��,1.3,��,24.8,94.8,0,0,0,0
2023-08-07T04:59:00+09:00,0.8,��,1.3,��,24.7,94.7,0,0,0,0
2023-08-07T05:00:00+09:00,0.8,��,1.3,��,24.7,94.5,0,0,0,0
2023-08-07T05:01:00+09:00,0.8,��,1.3,��,24.7,94.5,0,0,0,0
2023-08-07T05:02:00+09:00,0.8,��,1.3,��,24.7,94.7,0,0,0,0
2023-08-07T05:03:00+09:00,0.8,��,1.3,��,24.7,94.8,0,0,0,0
2023-08-07T05:04:00+09:00,0.8,��,1.3,��,24.8,95,0,0,0,0
2023-08-07T05:05:00+09:00,0.9,��,1.4,��,24.7,94.8,0,0,0,0
2023-08-07T05:06:00+09:00,0.9,��,1.4,��,24.7,94.5,0,0,0,0
2023-08-07T05:07:00+09:00,0.9,��,1.4,��,24.6,94.5,0,0,0,0
2023-08-07T05:08:00+09:00,0.9,��,1.4,��,24.6,94.7,0,0,0,0
2023-08-07T05:09:00+09:00,0.8,��,1.4,��,24.6,94.7,0,0,0,0
2023-08-07T05:10:00+09:00,0.8,��,1.4,��,24.6,94.9,0,0,0,0
2023-08-07T05:11:00+09:00,0.8,��,1.4,��,24.6,94.9,0,0,0,0
2023-08-07T05:12:00+09:00,0.8,��,1.4,��,24.6,94.9,0,0,0,0
2023-08-07T05:13:00+09:00,0.9,��,1.4,��,24.5,95.1,0,0,0,0
2023-08-07T05:14:00+09:00,0.8,���k��,1.4,��,24.5,95.2,0,0,0,0
2023-08-07T05:15:00+09:00,0.8,���k��,1.4,��,24.6,95.3,0,0,0,0
2023-08-07T05:16:00+09:00,0.8,���k��,1.4,��,24.6,95.4,0,0,0,0
2023-08-07T05:17:00+09:00,0.8,���k��,1.5,��,24.6,95.5,0,0,0,0
2023-08-07T05:18:00+09:00,0.9,���k��,1.5,��,24.6,95.4,0,0,0,0
2023-08-07T05:19:00+09:00,1,���k��,1.5,��,24.6,95.3,0,0,0,0
2023-08-07T05:20:00+09:00,1,���k��,1.5,��,24.6,95.2,0,0,0,0
2023-08-07T05:21:00+09:00,1,���k��,1.5,��,24.6,95.2,0,0,0,0
2023-08-07T05:22:00+09:00,1,���k��,1.5,��,24.6,95.2,0,0,0,0
2023-08-07T05:23:00+09:00,1,���k��,1.5,��,24.6,95.2,0,0,0,0
2023-08-07T05:24:00+09:00,1,���k��,1.5,��,24.7,95.3,0,0,0,0
2023-08-07T05:25:00+09:00,1,�k��,1.5,��,24.6,95.4,0,0,0,0
2023-08-07T05:26:00+09:00,1,�k��,1.5,��,24.6,95.3,0,0,0,0
2023-08-07T05:27:00+09:00,0.9,�k��,1.5,��,24.6,95.4,0,0,0,0
2023-08-07T05:28:00+09:00,0.9,�k��,1.4,��,24.5,95.4,0,0,0,0
2023-08-07T05:29:00+09:00,0.8,�k��,1.3,���k��,24.5,95.5,0,0,0,0
2023-08-07T05:30:00+09:00,0.7,�k��,1.3,���k��,24.6,95.6,0,0,0,0
2023-08-07T05:31:00+09:00,0.7,�k��,1.1,�k,24.6,95.7,0,0,0,0
2023-08-07T05:32:00+09:00,0.6,�k��,1.1,�k,24.6,95.8,0,0,0,0
2023-08-07T05:33:00+09:00,0.6,�k��,1.1,�k,24.6,95.7,0,0,0,0
2023-08-07T05:34:00+09:00,0.6,�k��,1.1,�k,24.6,95.7,0,0,0,0
2023-08-07T05:35:00+09:00,0.5,�k��,1,�k�k��,24.7,95.7,0,0,0,0
2023-08-07T05:36:00+09:00,0.5,�k��,0.8,�k��,24.7,95.7,0,0,0,0
2023-08-07T05:37:00+09:00,0.5,�k��,0.7,�k��,24.7,95.6,0,0,0,0
2023-08-07T05:38:00+09:00,0.5,�k��,0.7,�k��,24.7,95.5,0,0,0,0
2023-08-07T05:39:00+09:00,0.5,�k��,0.7,�k��,24.7,95.5,0,0,0,0
2023-08-07T05:40:00+09:00,0.5,�k��,0.7,�k��,24.7,95.5,0,0,0,0
2023-08-07T05:41:00+09:00,0.5,�k��,0.7,�k��,24.7,95.6,0,0,0,0
2023-08-07T05:42:00+09:00,0.6,�k��,0.8,�k,24.8,95.7,0,0,0,0
2023-08-07T05:43:00+09:00,0.5,�k��,0.8,�k,24.9,95.7,0,0,0,0
2023-08-07T05:44:00+09:00,0.5,�k�k��,0.8,�k,24.9,95.7,0,0,0,0
2023-08-07T05:45:00+09:00,0.5,�k�k��,0.8,�k,24.9,95.4,0,0,0,0
2023-08-07T05:46:00+09:00,0.5,�k�k��,0.8,�k,24.9,95.3,0,0,0,0
2023-08-07T05:47:00+09:00,0.5,�k�k��,0.8,�k,24.8,95.3,0,0,0,0
2023-08-07T05:48:00+09:00,0.5,�k�k��,0.8,�k,24.8,95.2,0,0,0,0
2023-08-07T05:49:00+09:00,0.5,�k,0.8,�k,24.8,95.3,0,0,0,0
2023-08-07T05:50:00+09:00,0.5,�k,0.8,�k,24.8,95.3,0,0,0,0
2023-08-07T05:51:00+09:00,0.4,�k,0.8,�k,24.8,95.4,0,0,0,0
2023-08-07T05:52:00+09:00,0.4,�k,0.8,�k,24.9,95.5,0,0,0,0
2023-08-07T05:53:00+09:00,0.4,�k,0.8,�k,24.9,95.5,0,0,0,0
2023-08-07T05:54:00+09:00,0.4,�k,0.8,�k,24.8,95.4,0,0,0,0
2023-08-07T05:55:00+09:00,0.4,�k,0.7,�k,24.8,95.4,0,0,0,0
2023-08-07T05:56:00+09:00,0.3,�k,0.6,�k,24.9,95.5,0,0,0,0
2023-08-07T05:57:00+09:00,0.3,�k,0.6,�k,25,95.5,0,0,0,0
2023-08-07T05:58:00+09:00,0.3,�k,0.6,�k,25,95.5,0,0,0,0
2023-08-07T05:59:00+09:00,0.2,�É�,0.6,�k,25,95.4,0,0,0,0
2023-08-07T06:00:00+09:00,0.2,�É�,0.6,�k,25.1,95.4,0,0,0,0
2023-08-07T06:01:00+09:00,0.2,�É�,0.6,�k,25.1,95.4,0,0,0,0
2023-08-07T06:02:00+09:00,0.2,�É�,0.6,�k,25.2,95.2,0,0,0,0
2023-08-07T06:03:00+09:00,0.2,�É�,0.6,�k,25.1,94.7,0,0,0,0
2023-08-07T06:04:00+09:00,0.2,�É�,0.6,�k,25.2,94.4,0,0,0,0
2023-08-07T06:05:00+09:00,0.2,�É�,0.6,�k,25.3,94.3,0,0,0,0
2023-08-07T06:06:00+09:00,0.2,�É�,0.5,��쐼,25.3,94,0,0,0,0
2023-08-07T06:07:00+09:00,0.2,�É�,0.7,�쐼,25.2,93.6,0,0,0,0
2023-08-07T06:08:00+09:00,0.2,�É�,0.7,�쐼,25.2,93.3,0,0,0,0
2023-08-07T06:09:00+09:00,0.3,��쐼,0.7,�쐼,25.3,93.4,0,0,0,0
2023-08-07T06:10:00+09:00,0.3,��쐼,0.7,�쐼,25.4,93.5,0,0,0,0
2023-08-07T06:11:00+09:00,0.3,��,0.7,�쐼,25.5,93.6,0,0,0,0
2023-08-07T06:12:00+09:00,0.4,��,0.7,�쐼,25.6,93.4,0,0,0,0
2023-08-07T06:13:00+09:00,0.4,��쓌,0.8,���k��,25.5,92.6,0,0,0,0
2023-08-07T06:14:00+09:00,0.4,�쓌,0.8,���k��,25.6,92.4,0,0,0,0
2023-08-07T06:15:00+09:00,0.4,�쓌,0.8,���k��,25.7,92.4,0,0,0,0
2023-08-07T06:16:00+09:00,0.4,���쓌,0.8,���k��,25.8,92.1,0,0,0,0
2023-08-07T06:17:00+09:00,0.4,���쓌,1,��쓌,25.8,91.5,0,0,0,0
2023-08-07T06:18:00+09:00,0.5,���쓌,1.3,��쓌,25.7,91.5,0,0,0,0
2023-08-07T06:19:00+09:00,0.5,���쓌,1.3,��쓌,25.7,91.2,0,0,0,0
2023-08-07T06:20:00+09:00,0.5,���쓌,1.3,��쓌,25.6,91.3,0,0,0,0
2023-08-07T06:21:00+09:00,0.6,���쓌,1.3,��쓌,25.7,91.5,0,0,0,0
2023-08-07T06:22:00+09:00,0.6,�쓌,1.3,��쓌,25.7,91.6,0,0,0,0
2023-08-07T06:23:00+09:00,0.7,�쓌,1.3,��쓌,25.7,91.6,0,0,0,0
2023-08-07T06:24:00+09:00,0.7,�쓌,1.4,�쓌,25.6,91.4,0,0,0,0
2023-08-07T06:25:00+09:00,0.8,�쓌,1.4,�쓌,25.6,91.5,0,0,0,0
2023-08-07T06:26:00+09:00,0.9,�쓌,1.4,�쓌,25.6,91.5,0,0,0,0
2023-08-07T06:27:00+09:00,0.9,�쓌,1.4,�쓌,25.6,91.4,0,0,0,0
2023-08-07T06:28:00+09:00,0.9,�쓌,1.4,�쓌,25.6,91.5,0,0,0,0
2023-08-07T06:29:00+09:00,0.9,�쓌,1.4,�쓌,25.7,91.5,0,0,0,0
2023-08-07T06:30:00+09:00,1,�쓌,1.4,�쓌,25.7,91.4,0,0,0,0
2023-08-07T06:31:00+09:00,1,�쓌,1.4,�쓌,25.7,91,0,0,0,0
2023-08-07T06:32:00+09:00,1,�쓌,1.4,�쓌,25.7,91,0,0,0,0
2023-08-07T06:33:00+09:00,1,�쓌,1.4,�쓌,25.8,91.3,0,0,0,0
2023-08-07T06:34:00+09:00,0.9,�쓌,1.3,�쓌,25.9,91.2,0,0,0,0
2023-08-07T06:35:00+09:00,0.9,�쓌,1.4,���쓌,25.9,90.9,0,0,0,0
2023-08-07T06:36:00+09:00,0.9,�쓌,1.4,���쓌,25.8,90.4,0,0,0,0
2023-08-07T06:37:00+09:00,0.9,�쓌,1.4,���쓌,25.9,90.4,0,0,0,0
2023-08-07T06:38:00+09:00,0.9,�쓌,1.5,��쓌,25.9,90.4,0,0,0,0
2023-08-07T06:39:00+09:00,0.9,���쓌,1.5,��쓌,25.9,90.1,0,0,0,0
2023-08-07T06:40:00+09:00,0.9,���쓌,1.6,�쓌,25.8,89.7,0,0,0,0
2023-08-07T06:41:00+09:00,0.9,���쓌,1.6,�쓌,25.7,89.7,0,0,0,0